Torna al catalogo

RAVAN

AttivoScienzaPO
NORAD 41849·PAYLOAD·🇺🇸 United States

Lanciato Nov 11, 2016 da Vandenberg Space Force Base

Loading…

Prossimi Passaggi (prossime 24 ore)

TLE

AggiornatoSource: Space-Track

Epoca: Sep 13, 2026, 23:39 UTC

1 41849U 16067B   26256.98574937  .00080097  00000-0  81947-3 0  9995
2 41849  97.9721 157.4180 0005570  70.3833 289.8025 15.64739668541537

Traccia RAVAN in tempo reale con AllMySat

Download on the App Store